Afton Municipal Airport, WY

9:15 PM MST on December 05, 2019 (GMT -0700)
Afton Municipal

Weather History for KAFO - August, 2019

Change the Weather History Date:

Friday, August 23, 2019

  Actual Average Record
Temperature  
Mean Temperature 55 °F -  
Max Temperature 73 °F 78 °F 78 °F (2015)
Min Temperature 37 °F 39 °F 30 °F (2015)
Degree Days  
Heating Degree Days 10    
Growing Degree Days 5 (Base 50)    
Moisture  
Dew Point 38 °F    
Average Humidity 56    
Maximum Humidity 93    
Minimum Humidity 22    
Precipitation  
Precipitation 0.00 in - - ()
Sea Level Pressure  
Sea Level Pressure 30.09 in    
Wind  
Wind Speed 3 mph ()    
Max Wind Speed 10 mph    
Max Gust Speed 22 mph    
Visibility 10.0 miles    
Events      
Averages and records for this station are not official NWS values.
T = Trace of Precipitation, MM = Missing Value Source: Averaged Metar Reports

Daily Weather History Graph

Daily Weather History Graph

Search for Another Location

Airport or City:

Astronomy

Aug. 23, 2019 Rise Set
Actual Time 6:38 AM MDT 8:13 PM MDT
Civil Twilight 6:08 AM MDT 8:42 PM MDT
Nautical Twilight 5:32 AM MDT 9:18 PM MDT
Astronomical Twilight 4:54 AM MDT 9:57 PM MDT
Moon No Moon Rise 2:29 PM MDT (8/23)
Length of Visible Light 14h 34m
Length of Day
13h 34m
Waning Gibbous, 49% of the Moon is Illuminated
Aug 23
Waning Gibbous
Aug 30
New
Sep 5
First Quarter
Sep 13
Full
Sep 21
Last Quarter

Hourly Weather History & Observations

Time (MDT) Temp. Windchill Dew Point Humidity Pressure Visibility Wind Dir Wind Speed Gust Speed Precip Events Conditions
12:15 AM 48.2 °F - 41.0 °F 76% 30.06 in 10.0 mi Calm Calm - N/A   Clear
12:35 AM 50.0 °F - 41.0 °F 71% 30.05 in 10.0 mi Calm Calm - N/A   Clear
12:55 AM 48.2 °F - 41.0 °F 76% 30.05 in 10.0 mi Calm Calm - N/A   Clear
1:15 AM 46.4 °F - 41.0 °F 81% 30.05 in 10.0 mi Calm Calm - N/A   Clear
1:35 AM 44.6 °F - 41.0 °F 87% 30.06 in 10.0 mi Calm Calm - N/A   Clear
1:55 AM 44.6 °F - 41.0 °F 87% 30.07 in 10.0 mi Calm Calm - N/A   Clear
2:15 AM 44.6 °F - 39.2 °F 81% 30.07 in 10.0 mi Calm Calm - N/A   Clear
2:35 AM 44.6 °F 41.4 °F 37.4 °F 76% 30.07 in 10.0 mi South 5.8 mph - N/A   Clear
2:55 AM 42.8 °F 39.3 °F 37.4 °F 81% 30.06 in 10.0 mi SSE 5.8 mph - N/A   Clear
3:15 AM 44.6 °F - 37.4 °F 76% 30.07 in 10.0 mi Calm Calm - N/A   Clear
3:35 AM 41.0 °F 37.1 °F 35.6 °F 81% 30.08 in 10.0 mi South 5.8 mph - N/A   Clear
3:55 AM 42.8 °F 40.1 °F 37.4 °F 81% 30.08 in 10.0 mi SSE 4.6 mph - N/A   Clear
4:15 AM 41.0 °F 39.0 °F 35.6 °F 81% 30.09 in 10.0 mi SSW 3.5 mph - N/A   Clear
4:35 AM 41.0 °F - 35.6 °F 81% 30.09 in 10.0 mi Calm Calm - N/A   Clear
4:55 AM 42.8 °F 40.1 °F 35.6 °F 76% 30.09 in 10.0 mi SSE 4.6 mph - N/A   Clear
5:15 AM 39.2 °F 37.0 °F 33.8 °F 81% 30.09 in 10.0 mi South 3.5 mph - N/A   Clear
5:35 AM 39.2 °F 35.9 °F 35.6 °F 87% 30.10 in 10.0 mi South 4.6 mph - N/A   Clear
5:55 AM 41.0 °F 39.0 °F 35.6 °F 81% 30.10 in 10.0 mi SSE 3.5 mph - N/A   Clear
6:15 AM 39.2 °F 35.9 °F 33.8 °F 81% 30.11 in 10.0 mi SSW 4.6 mph - N/A   Clear
6:35 AM 37.4 °F 34.9 °F 33.8 °F 87% 30.11 in 10.0 mi South 3.5 mph - N/A   Clear
6:55 AM 37.4 °F 34.9 °F 33.8 °F 87% 30.11 in 10.0 mi SSW 3.5 mph - N/A   Clear
7:15 AM 37.4 °F - 33.8 °F 87% 30.12 in 10.0 mi Calm Calm - N/A   Clear
7:35 AM 37.4 °F - 35.6 °F 93% 30.13 in 10.0 mi Calm Calm - N/A   Clear
7:55 AM 41.0 °F - 35.6 °F 81% 30.13 in 10.0 mi Calm Calm - N/A   Clear
8:35 AM 46.4 °F - 37.4 °F 71% 30.13 in 10.0 mi Calm Calm - N/A   Clear
8:55 AM 48.2 °F - 37.4 °F 66% 30.13 in 10.0 mi Calm Calm - N/A   Clear
9:35 AM 53.6 °F - 35.6 °F 51% 30.13 in 10.0 mi Calm Calm - N/A   Clear
9:55 AM 55.4 °F - 37.4 °F 51% 30.13 in 10.0 mi Calm Calm - N/A   Clear
10:35 AM 59.0 °F - 39.2 °F 48% 30.13 in 10.0 mi Calm Calm - N/A   Clear
10:55 AM 60.8 °F - 41.0 °F 48% 30.13 in 10.0 mi Calm Calm - N/A   Clear
11:15 AM 62.6 °F - 41.0 °F 45% 30.13 in 10.0 mi Calm Calm - N/A   Clear
11:35 AM 66.2 °F - 37.4 °F 35% 30.11 in 10.0 mi NNW 3.5 mph - N/A   Clear
11:55 AM 68.0 °F - 37.4 °F 33% 30.11 in 10.0 mi Calm Calm - N/A   Clear
12:15 PM 68.0 °F - 37.4 °F 33% 30.10 in 10.0 mi Calm Calm - N/A   Clear
12:35 PM 71.6 °F - 37.4 °F 29% 30.10 in 10.0 mi Calm Calm - N/A   Clear
12:55 PM 71.6 °F - 39.2 °F 31% 30.09 in 10.0 mi North 3.5 mph - N/A   Clear
1:15 PM 73.4 °F - 39.2 °F 29% 30.08 in 10.0 mi NW 4.6 mph - N/A   Clear
1:35 PM 71.6 °F - 37.4 °F 29% 30.08 in 10.0 mi NNE 4.6 mph - N/A   Scattered Clouds
1:55 PM 73.4 °F - 41.0 °F 31% 30.08 in 10.0 mi North 5.8 mph - N/A   Scattered Clouds
2:15 PM 69.8 °F - 39.2 °F 33% 30.08 in 10.0 mi Calm Calm - N/A   Mostly Cloudy
2:35 PM 71.6 °F - 41.0 °F 33% 30.07 in 10.0 mi NNW 4.6 mph - N/A   Mostly Cloudy
2:55 PM 71.6 °F - 37.4 °F 29% 30.07 in 10.0 mi Calm Calm - N/A   Overcast
3:15 PM 69.8 °F - 39.2 °F 33% 30.07 in 10.0 mi WNW 8.1 mph 21.9 mph N/A   Overcast
3:35 PM 73.4 °F - 41.0 °F 31% 30.06 in 10.0 mi WNW 10.4 mph 16.1 mph N/A   Scattered Clouds
3:55 PM 73.4 °F - 37.4 °F 27% 30.06 in 10.0 mi WNW 9.2 mph 17.3 mph N/A   Clear
4:15 PM 73.4 °F - 35.6 °F 25% 30.06 in 10.0 mi West 8.1 mph - N/A   Clear
4:35 PM 73.4 °F - 32.0 °F 22% 30.06 in 10.0 mi Calm Calm - N/A   Scattered Clouds
4:55 PM 73.4 °F - 39.2 °F 29% 30.06 in 10.0 mi WNW 9.2 mph - N/A   Clear
5:15 PM 73.4 °F - 35.6 °F 25% 30.06 in 10.0 mi West 6.9 mph - N/A   Clear
5:35 PM 73.4 °F - 37.4 °F 27% 30.06 in 10.0 mi NW 6.9 mph - N/A   Clear
5:55 PM 73.4 °F - 37.4 °F 27% 30.06 in 10.0 mi NW 9.2 mph - N/A   Clear
6:15 PM 71.6 °F - 41.0 °F 33% 30.06 in 10.0 mi NW 9.2 mph - N/A   Clear
6:35 PM 71.6 °F - 39.2 °F 31% 30.06 in 10.0 mi WNW 9.2 mph - N/A   Scattered Clouds
6:55 PM 69.8 °F - 41.0 °F 35% 30.06 in 10.0 mi NW 8.1 mph - N/A   Clear
7:15 PM 68.0 °F - 42.8 °F 40% 30.07 in 10.0 mi NW 6.9 mph - N/A   Clear
7:35 PM 62.6 °F - 42.8 °F 48% 30.07 in 10.0 mi NW 5.8 mph - N/A   Clear
7:55 PM 62.6 °F - 41.0 °F 45% 30.07 in 10.0 mi NNW 3.5 mph - N/A   Clear
8:15 PM 60.8 °F - 39.2 °F 45% 30.08 in 10.0 mi North 6.9 mph - N/A   Clear
8:35 PM 59.0 °F - 39.2 °F 48% 30.09 in 10.0 mi North 5.8 mph - N/A   Clear
8:55 PM 60.8 °F - 39.2 °F 45% 30.10 in 10.0 mi NNE 5.8 mph - N/A   Clear
9:15 PM 60.8 °F - 37.4 °F 42% 30.10 in 10.0 mi NE 3.5 mph - N/A   Clear
9:35 PM 59.0 °F - 37.4 °F 45% 30.10 in 10.0 mi Calm Calm - N/A   Clear
9:55 PM 53.6 °F - 37.4 °F 54% 30.11 in 10.0 mi SSW 4.6 mph - N/A   Clear
10:15 PM 50.0 °F - 39.2 °F 66% 30.11 in 10.0 mi SSE 3.5 mph - N/A   Clear
10:35 PM 48.2 °F - 37.4 °F 66% 30.13 in 10.0 mi South 3.5 mph - N/A   Clear
10:55 PM 46.4 °F 42.9 °F 37.4 °F 71% 30.13 in 10.0 mi South 6.9 mph - N/A   Clear
11:15 PM 46.4 °F 44.3 °F 37.4 °F 71% 30.13 in 10.0 mi South 4.6 mph - N/A   Clear
11:35 PM 46.4 °F 42.4 °F 37.4 °F 71% 30.13 in 10.0 mi South 8.1 mph - N/A   Clear
11:55 PM 46.4 °F 42.4 °F 37.4 °F 71% 30.13 in 10.0 mi South 8.1 mph - N/A   Clear